Regional Weather Roundup
Issued by NWS

Home | Current Version | Previous Version | Text Only | Print | Product List | Glossary On
Versions: 1 2 3 4 5 6 7 8 9 10 11 12 13 14 15 16 17 18 19 20 21 22 23 24 25 26 27 28 29 30 31 32 33 34 35 36 37 38 39 40 41 42 43 44 45 46 47 48 49 50
000
ASUS45 KABQ 250110
RWRNM
NEW MEXICO REGIONAL WEATHER ROUNDUP
NATIONAL WEATHER SERVICE ALBUQUERQUE NM
700 PM MDT TUE MAY 24 2016

NOTE: "FAIR" MEANS FEW OR NO CLOUDS BELOW 12,000 FEET AGL WITH NO
       SIGNIFICANT WEATHER OR OBSTRUCTIONS TO VISION.

      THIS PRODUCT IS RELEASED AS TWO VERSIONS.  ONE VERSION NEAR
      THE TOP OF THE HOUR CONTAINING PRELIMINARY DATA FROM ALBUQUERQUE
      AND OTHER STATIONS.  A FINAL VERSION WITH ADDITIONAL DATA IS
      ISSUED ABOUT 10 MINUTES AFTER THE HOUR.

NMZ501-503-504-510>518-250200-
NORTHWEST PLATEAU/NORTHCENTRAL MOUNTAINS

CITY           SKY/WX    TMP DP  RH WIND       PRES   REMARKS
FARMINGTON     FAIR      74   3   6 SW22      29.91S
LOS ALAMOS     FAIR      69  12  11 S14G20    30.02F
SANTA FE       FAIR      76   5   6 SW20G32   29.96S
TAOS           PTSUNNY   68  19  15 S15G40    30.01F
ANGEL FIRE     FAIR      59  19  21 SW15      30.09S

$$
NMZ402-403-502-505>509-250200-
WESTCENTRAL MOUNTAINS/SOUTHWEST MOUNTAINS

CITY           SKY/WX    TMP DP  RH WIND       PRES   REMARKS
GALLUP         FAIR      68   8   9 SW24G33   30.03S
GRANTS         FAIR      71  11  10 W14G31    30.04R
SILVER CITY      N/A     77  16  10 W15G30    30.03F

$$
NMZ407-409-411-412-250200-
SOUTHERN DESERTS

CITY           SKY/WX    TMP DP  RH WIND       PRES   REMARKS
LORDSBURG      FAIR      82  18   9 W20G26    29.95S
DEMING         FAIR      84  19   9 SW22G32   29.95S
LAS CRUCES     FAIR      85  13   7 W17G24    29.96R
HOLLOMAN AFB   FAIR      87  13   6 SW14G24   29.91S
ALAMOGORDO     FAIR      84  16   8 SW14G26   29.93F
T OR C         FAIR      83  14   7 SW20G28   29.93S

$$
NMZ519>523-250200-
CENTRAL VALLEYS/CENTRAL HIGHLANDS

CITY           SKY/WX    TMP DP  RH WIND       PRES   REMARKS
ALBUQUERQUE    FAIR      81  10   7 SW15G29   29.91S
DOUBLE EAGLE   MOSUNNY   79  14   8 SW23      29.95S
MORIARTY ARPT  FAIR      77  10   7 SW18G26   29.98S
CLINES CORNERS FAIR      69  15  12 SW24      30.02S
BELEN          FAIR      81   7   6 SW21G29   29.93R
SOCORRO        FAIR      81  13   7 SW16G26   29.93R

$$
NMZ524>526-539-540-250200-
SOUTHCENTRAL MOUNTAINS

CITY           SKY/WX    TMP DP  RH WIND       PRES   REMARKS
RUIDOSO          N/A     70  16  12 SW23G32   30.10S

$$
NMZ527>531-250200-
NORTHEAST HIGHLANDS/NORTHEAST PLAINS

CITY           SKY/WX    TMP DP  RH WIND       PRES   REMARKS
LAS VEGAS      FAIR      72   8   8 SW17G28   29.99F
RATON          FAIR      74  18  12 W14       29.90R
CLAYTON        FAIR      81  21  11 SW18G26   29.84S

$$
NMZ532>537-250200-
EASTCENTRAL PLAINS

CITY           SKY/WX    TMP DP  RH WIND       PRES   REMARKS
TUCUMCARI      FAIR      87  13   6 SW22G28   29.82R
CANNON AFB     FAIR      86  19   8 SW14      29.87R
CLOVIS AIRPORT FAIR      84  25  11 SW15      29.87S

$$
NMZ028-029-538-250200-
SOUTHEAST PLAINS

CITY           SKY/WX    TMP DP  RH WIND       PRES   REMARKS
ROSWELL        FAIR      90  18   7 SW18      29.84R
ARTESIA        FAIR      90  21   8 SW24      29.88R
CARLSBAD       FAIR      88  12   6 W14G24    29.86R
HOBBS          FAIR      86  18   8 SW8       29.91S


$$




USA.gov is the U.S. government's official web portal to all federal, state and local government web resources and services.